Regional Weather Roundup
Issued by NWS

Home | Current Version | Previous Version | Text Only | Print | Product List | Glossary On
Versions: 1 2 3 4 5 6 7 8 9 10 11 12 13 14 15 16 17 18 19 20 21 22 23 24 25 26 27
000
ASUS42 KKEY 202010
RWRKEY

FLORIDA REGIONAL WEATHER ROUNDUP FOR THE FLORIDA KEYS
NATIONAL WEATHER SERVICE KEY WEST FLORIDA
400 PM EDT FRI OCT 20 2017

...SOUTH FLORIDA AND THE KEYS...

CITY           SKY/WX    TMP DP  RH WIND       PRES   REMARKS
FORT MYERS     PTSUNNY   84  71  65 E17G24    29.99S
SW REGIONAL AP CLOUDY    85  72  65 E17G30    30.00S HX  91
NAPLES         MOSUNNY   84  74  71 E18       29.98R HX  91
MIAMI          PTSUNNY   88  75  65 E17G25    29.98F HX  97
WEST KENDALL   PTSUNNY   86  74  67 E22       29.97S HX  94
HOMESTEAD      MOSUNNY   86  78  76 NE17      29.96F HX  98
MARATHON       MOSUNNY   87  73  62 E13G23    29.95S HX  94
KEY WEST INTL  MOSUNNY   87  76  69 E18G24    29.95S HX  97

...INTERNATIONAL WEATHER...

CITY           SKY/WX    TMP DP  RH WIND       PRES   REMARKS
NASSAU BAHAMAS SHOWER    82  77  83 NE7G23    29.97F HX  91
CANCUN MEXICO  LGT RAIN  77  75  94 E7        29.91S
COZUMEL MEXICO CLOUDY    82  77  83 E9        29.88F HX  91

ADJACENT COASTAL WATERS...

STATION/POSITION TIME  SKY/WX   TEMP    WIND        PRES    WAVE
                                AIR SEA DIR/SP/G            HT/PER
                 (UTC)          (F)     (DEG/KT/KT) (MB)    (FT/S)
PULASKI SHOAL LI 2000            83      70/ 14/ 15 1014.5F
SAND KEY         1950            82                 1014.7F
LONG KEY         NOT AVBL
MOLASSES REEF    2000            83 84   70/ 19/ 21 1014.5
FOWEY ROCKS      2000            82 83   60/ 20/ 21 1015.7S
Buoy 42097       1930               84                N/A     6/ 6

$$




USA.gov is the U.S. government's official web portal to all federal, state and local government web resources and services.